Hourly Data Report for September 28, 2017

All times are specified in Local Standard Time (LST). Add 1 hour to adjust for Daylight Saving Time where and when it is observed.

GRISE FIORD CLIMATE
NUNAVUT

76°25'22.040" N
82°54'08.020" W
44.50 m
2402351
71971
NGC

Download Data

Hourly Data (September 2017)
Hourly Data Report for September 28, 2017
Temp Definition
°C
Dew Point Temp Definition
°C
Rel Hum Definition
%
Wind Dir Definition
10's deg

Wind Spd Definition
km/h
Visibility Definition
km
Stn Press Definition
kPa
Hmdx Definition


Wind Chill Definition


Weather Definition


TIME
00:00 -4.4 -6.2 87 2 5   99.78   -7 LegendNANA
01:00 -4.5 -6.1 89 5 11   99.73   -9 LegendNANA
02:00 -5.6 -6.9 90 5 23   99.68   -13 LegendNANA
03:00 -5.4 -7.4 86 5 16   99.67   -11 LegendNANA
04:00 -5.7 -7.4 88 5 18   99.65   -12 LegendNANA
05:00 -5.4 -7.0 88 4 8   99.64   -9 LegendNANA
06:00 -5.3 -7.0 87 4 3   99.64   -7 LegendNANA
07:00 -5.5 -7.5 86 4 14   99.65   -11 LegendNANA
08:00 -5.2 -7.4 84 3 4   99.68   -7 LegendNANA
09:00 -4.9 -7.1 85 7 2   99.68   -6 LegendNANA
10:00 -4.6 -6.9 84 25 4   99.73   -6 LegendNANA
11:00 -4.3 -7.2 80 16 2   99.75   -5 LegendNANA
12:00 -4.4 -6.6 85 10 4   99.80   -6 LegendNANA
13:00 -3.7 -7.2 77 17 3   99.86   -5 LegendNANA
14:00 -3.9 -6.6 82 15 4   99.90   -6 LegendNANA
15:00 -3.7 -6.4 81 17 1   99.98   -4 LegendNANA
16:00 -3.8 -6.7 80 24 5   100.04   -6 LegendNANA
17:00 -4.1 -6.5 83 3 2   100.09   -5 LegendNANA
18:00 -4.1 -5.3 91 12 1   100.13   -5 LegendNANA
19:00 -4.3 -5.5 91 6 3   100.17   -6 LegendNANA
20:00 -4.0 -4.8 95 13 2   100.22   -5 LegendNANA
21:00 -4.2 -5.4 92 6 4   100.25   -6 LegendNANA
22:00 -4.2 -5.2 93 5 2   100.28   -5 LegendNANA
23:00 -4.3 -5.6 91 3 2   100.32   -5 LegendNANA

Notes on Data Quality.

Legend

  • E = Estimated
  • M = Missing
  • NA = Not Available
  • ‡ = Partner data that is not subject to review by the National Climate Archives
Date modified: